Oroville, Washington, United States (98844)
Lat: 48.94N, Lon: 119.43W
Wx Zone: WAZ043
Local Info
Past Weather Observations for Today

NOTE: This archive is for the closest National Weather Service station to Oroville. Information may differ from the station used for current weather conditions.

Click here for Long-term Archive

Time Weather Temperature Dewpoint Humidity Pressure Winds Precip Visibility
19:26
Overcast
36°F / 2°C 30°F / -1°C 81% 30.06 in
(1018 mb)
S 11.5 mph
(S 19 kph)
- 10SM
18:53
Overcast
36°F / 2°C 30°F / -1°C 81% 30.09 in
(1019 mb)
SW 8.1 mph
(SW 13 kph)
- 10SM
17:53
Overcast
36°F / 2°C 30°F / -1°C 81% 30.09 in
(1019 mb)
SSE 10.4 mph
(SSE 17 kph)
- 10SM
16:53
Partly Cloudy
36°F / 2°C 32°F / 0°C 87% 30.12 in
(1020 mb)
S 5.8 mph
(S 9 kph)
- 10SM
15:53
Overcast
36°F / 2°C 32°F / 0°C 87% 30.15 in
(1021 mb)
S 3.5 mph
(S 6 kph)
- 10SM
14:53
Overcast
36°F / 2°C 32°F / 0°C 87% 30.15 in
(1021 mb)
SE 4.6 mph
(SE 7 kph)
0.00 in
(0.00 mm)
10SM
14:03
Overcast
Light Rain
36°F / 2°C 32°F / 0°C 87% 30.15 in
(1021 mb)
SE 6.9 mph
(SE 11 kph)
0.00 in
(0.00 mm)
10SM
13:53
Overcast
37°F / 3°C 32°F / 0°C 81% 30.18 in
(1022 mb)
SE 6.9 mph
(SE 11 kph)
- 10SM
13:51
Overcast
37°F / 3°C 32°F / 0°C 81% 30.18 in
(1022 mb)
SE 5.8 mph
(SE 9 kph)
- 10SM
12:53
Overcast
36°F / 2°C 32°F / 0°C 87% 30.18 in
(1022 mb)
S 6.9 mph
(S 11 kph)
- 10SM
11:53
Overcast
36°F / 2°C 34°F / 1°C 93% 30.21 in
(1023 mb)
S 4.6 mph
(S 7 kph)
- 9SM
10:53
Overcast
37°F / 3°C 34°F / 1°C 87% 30.21 in
(1023 mb)
SE 5.8 mph
(SE 9 kph)
- 10SM
09:53
Overcast
Fog And Mist
36°F / 2°C 34°F / 1°C 93% 30.21 in
(1023 mb)
Calm - 4SM
09:41
Overcast
Fog And Mist
36°F / 2°C 34°F / 1°C 93% 30.21 in
(1023 mb)
SSE 3.5 mph
(SSE 6 kph)
- 4SM
09:33
Overcast
Fog And Mist
36°F / 2°C 34°F / 1°C 93% 30.21 in
(1023 mb)
S 3.5 mph
(S 6 kph)
- 2 1/2SM
09:21
Overcast
Fog And Mist
36°F / 2°C 34°F / 1°C 93% 30.21 in
(1023 mb)
SW 3.5 mph
(SW 6 kph)
- 1 1/4SM
09:14
Overcast
Fog And Mist
36°F / 2°C 34°F / 1°C 93% 30.21 in
(1023 mb)
SW 3.5 mph
(SW 6 kph)
- 3/4SM
09:04
Overcast
Fog
34°F / 1°C 34°F / 1°C 100% 30.21 in
(1023 mb)
SW 3.5 mph
(SW 6 kph)
- 1/4SM
08:53
Overcast
Fog
34°F / 1°C 34°F / 1°C 100% 30.21 in
(1023 mb)
SSE 3.5 mph
(SSE 6 kph)
- 1/4SM
08:41
Overcast
Fog
34°F / 1°C 34°F / 1°C 100% 30.21 in
(1023 mb)
S 3.5 mph
(S 6 kph)
- 1/4SM
08:30
Overcast
Fog And Mist
36°F / 2°C 34°F / 1°C 93% 30.21 in
(1023 mb)
S 3.5 mph
(S 6 kph)
- 3/4SM
08:22
Overcast
Fog And Mist
36°F / 2°C 34°F / 1°C 93% 30.21 in
(1023 mb)
Calm - 1SM
08:11
Overcast
Fog And Mist
34°F / 1°C 32°F / 0°C 93% 30.21 in
(1023 mb)
S 4.6 mph
(S 7 kph)
- 1 1/4SM
07:53
Overcast
Fog And Mist
34°F / 1°C 34°F / 1°C 100% 30.21 in
(1023 mb)
Calm - 3/4SM
07:49
Overcast
Fog And Mist
34°F / 1°C 34°F / 1°C 100% 30.21 in
(1023 mb)
Calm - 3/4SM
07:22
Overcast
Fog And Mist
34°F / 1°C 32°F / 0°C 93% 30.21 in
(1023 mb)
W 3.5 mph
(W 6 kph)
- 1 3/4SM
07:15
Overcast
Fog And Mist
34°F / 1°C 32°F / 0°C 93% 30.18 in
(1022 mb)
WNW 3.5 mph
(WNW 6 kph)
- 1SM
06:53
Overcast
Fog And Mist
34°F / 1°C 32°F / 0°C 93% 30.18 in
(1022 mb)
NW 3.5 mph
(NW 6 kph)
- 3/4SM
06:13
Overcast
Fog
34°F / 1°C 34°F / 1°C 100% 30.18 in
(1022 mb)
Calm - 1/2SM
06:01
Overcast
Fog
34°F / 1°C 34°F / 1°C 100% 30.18 in
(1022 mb)
Calm - 1/4SM
05:53
Overcast
Fog
34°F / 1°C 34°F / 1°C 100% 30.18 in
(1022 mb)
Calm - 1/4SM
04:53
Obscured
Fog
34°F / 1°C 34°F / 1°C 100% 30.15 in
(1021 mb)
Calm - 1/4SM
04:20
Overcast
Fog
34°F / 1°C 34°F / 1°C 100% 30.15 in
(1021 mb)
Calm - 1/4SM
04:04
Overcast
Fog
34°F / 1°C 34°F / 1°C 100% 30.15 in
(1021 mb)
S 3.5 mph
(S 6 kph)
- 1/4SM
03:53
Overcast
Fog
36°F / 2°C 34°F / 1°C 93% 30.12 in
(1020 mb)
SSE 5.8 mph
(SSE 9 kph)
- 1/4SM
03:49
Overcast
Fog
36°F / 2°C 34°F / 1°C 93% 30.12 in
(1020 mb)
SE 5.8 mph
(SE 9 kph)
- 1/2SM
03:45
Overcast
Fog And Mist
36°F / 2°C 34°F / 1°C 93% 30.12 in
(1020 mb)
SE 5.8 mph
(SE 9 kph)
- 1SM
03:38
Overcast
Fog And Mist
36°F / 2°C 34°F / 1°C 93% 30.12 in
(1020 mb)
SE 6.9 mph
(SE 11 kph)
- 2 1/2SM
03:12
Overcast
Fog And Mist
36°F / 2°C 34°F / 1°C 93% 30.15 in
(1021 mb)
Calm - 6SM
03:04
Overcast
Fog And Mist
36°F / 2°C 34°F / 1°C 93% 30.15 in
(1021 mb)
Calm - 2SM
02:53
Overcast
Fog And Mist
36°F / 2°C 34°F / 1°C 93% 30.12 in
(1020 mb)
N 3.5 mph
(N 6 kph)
- 1SM
02:51
Overcast
Fog And Mist
36°F / 2°C 34°F / 1°C 93% 30.12 in
(1020 mb)
Calm - 1SM
02:46
Overcast
Fog And Mist
34°F / 1°C 34°F / 1°C 100% 30.12 in
(1020 mb)
E 3.5 mph
(E 6 kph)
- 2SM
02:38
Overcast
Fog And Mist
34°F / 1°C 34°F / 1°C 100% 30.12 in
(1020 mb)
SW 5.8 mph
(SW 9 kph)
- 4SM
02:30
Overcast
Fog And Mist
36°F / 2°C 34°F / 1°C 93% 30.12 in
(1020 mb)
S 4.6 mph
(S 7 kph)
- 2SM
02:27
Overcast
Fog And Mist
36°F / 2°C 34°F / 1°C 93% 30.12 in
(1020 mb)
S 4.6 mph
(S 7 kph)
- 1SM
02:02
Overcast
Fog And Mist
34°F / 1°C 34°F / 1°C 100% 30.12 in
(1020 mb)
S 3.5 mph
(S 6 kph)
- 3/4SM
01:53
Overcast
Fog And Mist
34°F / 1°C 34°F / 1°C 100% 30.12 in
(1020 mb)
SW 3.5 mph
(SW 6 kph)
- 1 3/4SM
01:49
Overcast
Fog And Mist
34°F / 1°C 34°F / 1°C 100% 30.12 in
(1020 mb)
SW 3.5 mph
(SW 6 kph)
- 2 1/2SM
01:35
Overcast
Fog And Mist
36°F / 2°C 34°F / 1°C 93% 30.12 in
(1020 mb)
SW 3.5 mph
(SW 6 kph)
- 1 1/4SM
01:23
Overcast
Fog And Mist
36°F / 2°C 34°F / 1°C 93% 30.12 in
(1020 mb)
S 3.5 mph
(S 6 kph)
- 2 1/2SM
01:09
Overcast
Fog And Mist
36°F / 2°C 34°F / 1°C 93% 30.12 in
(1020 mb)
Calm - 1 1/4SM
00:59
Overcast
Fog And Mist
36°F / 2°C 34°F / 1°C 93% 30.12 in
(1020 mb)
Calm - 1SM
00:53
Overcast
Fog And Mist
36°F / 2°C 34°F / 1°C 93% 30.12 in
(1020 mb)
Calm - 1 1/4SM
00:50
Overcast
Fog And Mist
36°F / 2°C 34°F / 1°C 93% 30.12 in
(1020 mb)
Calm - 1 1/4SM
00:44
Overcast
Fog And Mist
34°F / 1°C 34°F / 1°C 100% 30.12 in
(1020 mb)
S 4.6 mph
(S 7 kph)
- 1SM
00:37
Overcast
Fog And Mist
34°F / 1°C 34°F / 1°C 100% 30.12 in
(1020 mb)
S 3.5 mph
(S 6 kph)
- 1 1/4SM
00:21
Overcast
Fog And Mist
36°F / 2°C 34°F / 1°C 93% 30.12 in
(1020 mb)
SSW 3.5 mph
(SSW 6 kph)
- 2 1/2SM
Time Weather Temperature Dewpoint Humidity Pressure Winds Precip Visibility


Weather for websites

WeatherForYou.com, LLC is not responsible for any damages or problems caused by this service. Current weather conditions are obtained from the closest station including government and personal stations which may have varying degrees of accuracy. Weather forecasts are derived from the NOAA NDFD. Like all things, this site belongs to Jesus Christ... He just trusts us to maintain it. If you have any questions or comments email webmaster@weatherforyou.com

Copyright © 2016, WeatherForYou.com LLC. All rights reserved.